TOURFACTS.DK  
Stats and Facts from Tour de France.

Tour de France 2019 starts in 349 days
  Riders   Stages   Teams   Summits   Yearly  


 
Search by year

After 2018 - Stage 13:
 15000 starters.
  5163 different riders.
  639 teams.
  2245 stages.
  456 restdays.
  441769.60 km.
  5677 abandonnees.


Top 3
GC
Christopher Froome86:20:55
Rigoberto Urán86:21:49
Romain Bardet86:23:15
Climb
Warren Barguil169 pt.
Primoz Roglic80 pt.
Thomas De Gendt64 pt.
Sprint
Michael Matthews359 pt.
André Greipel234 pt.
Edvald Boasson Hagen220 pt.
Youth
Simon Yates86:27:09
Louis Meintjes86:29:15
Emanuel Buchmann86:54:16
Facts from Tour de France 1948
  |   Stages.  |   Stage winners.  |   Days in yellow  |   Average speed.  |   Route.  |   Teams.  |   All riders.  |   Rookies.  |  

  |   Withdrawls.  |   GC.  |   Polka  |   Green  |   White  |   Summits. (In tour)  |   Miscellaneous.  |  

Stage 1 on June 30th. 1948
  
Pick a stage:  1 2 3 4 5 6 7 8 9 10 11 12 13 14 15 16 17 18 19 20 21
From: Paris    To: TrouvilleDist:237.00 km.

Average speed for all riders in stage:  34,010 km./hr.
    Place:Name:Team:Time:Km/h:
ITAGino BartaliITAItaly06:50:24  +  00:00:00=34,649 
BELBriek SchotteBELBelgium06:50:24  +  00:00:00=34,649 
FRALucien TeisseireFRAFrance06:50:24  +  00:00:00=34,649 
4 BELJean EngelsBELAiglons Belges06:50:24  +  00:00:00=34,649 
5 FRAMaurice De MuerFRAIle De France-North East06:50:24  +  00:00:00=34,649 
6 BELRené MertensBELBelgium06:50:24  +  00:00:00=34,649 
7 GERCésar MarcelakFRAIle De France-North East06:50:24  +  00:00:00=34,649 
8 BELFlorent MathieuBELBelgium06:50:24  +  00:00:00=34,649 
9 FRABernard GauthierFRASouth-East06:50:24  +  00:00:00=34,649 
10 BELRik RendersBELAiglons Belges06:50:24  +  00:00:00=34,649 
11 SUIPierre BrambillaINTInternations06:50:24  +  00:00:00=34,649 
12 ITAAntonio BevilacquaITAItaly06:50:24  +  00:00:00=34,649 
13 FRARaoul RemyFRASouth-East06:51:07  +  00:00:43=34,589 
14 ITAUrbain CaffiFRAIle De France-North East06:51:07  +  00:00:43=34,589 
15 FRALucien LaukFRAParis06:51:07  +  00:00:43=34,589 
16 FRACamille DanguillaumeFRAFrance06:51:07  +  00:00:43=34,589 
17 BELMaurice MeersmanBELAiglons Belges06:51:07  +  00:00:43=34,589 
18 BELAlbert RamonBELBelgium06:51:07  +  00:00:43=34,589 
19 ITAPaul NeriINTInternations06:51:07  +  00:00:43=34,589 
20 ITAFermo CamelliniINTInternations06:51:07  +  00:00:43=34,589 
21 FRARobert BonnaventureFRAWest06:51:07  +  00:00:43=34,589 
22 FRALouison BobetFRAFrance06:51:07  +  00:00:43=34,589 
23 FRALouis CaputFRAFrance06:51:07  +  00:00:43=34,589 
24 FRARoger LevequeFRACenter-South West06:51:07  +  00:00:43=34,589 
25 FRAJean RobicFRAFrance06:51:07  +  00:00:43=34,589 
26 FRARené ViettoFRAFrance06:51:07  +  00:00:43=34,589 
27 BELMarcel DupontBELAiglons Belges06:51:07  +  00:00:43=34,589 
28 FRARaphaël GeminianiFRACenter-South West06:51:07  +  00:00:43=34,589 
29 FRARaymond GueganFRAWest06:51:07  +  00:00:43=34,589 
30 BELRoger LambrechtINTInternations06:51:07  +  00:00:43=34,589 
31 FRAMaurice DiotFRAParis06:51:07  +  00:00:43=34,589 
32 FRAGeorges MartinFRASouth-East06:51:07  +  00:00:43=34,589 
33 SUIGeorges AeschlimannINTInternations06:51:07  +  00:00:43=34,589 
34 FRAAmédée RollandFRASouth-East06:51:07  +  00:00:43=34,589 
35 ITAGino SciardisINTInternations06:51:07  +  00:00:43=34,589 
36 GEREdouard KlabinskiINTInternations06:51:07  +  00:00:43=34,589 
37 FRAVictor PernacFRASouth-East06:54:22  +  00:03:58=34,317 
38 BELAdolf VerschuerenBELAiglons Belges06:54:22  +  00:03:58=34,317 
39 BELAndré RosseelBELAiglons Belges06:54:22  +  00:03:58=34,317 
40 BELAndré DeclerckBELBelgium06:54:22  +  00:03:58=34,317 
41 FRARobert DesbatsFRACenter-South West06:54:22  +  00:03:58=34,317 
42 FRARobert MignatFRAParis06:54:22  +  00:03:58=34,317 
43 ITAAlfred MacorigFRACenter-South West06:54:22  +  00:03:58=34,317 
44 FRALouis ThiétardFRAParis06:54:22  +  00:03:58=34,317 
45 FRALucien LaukFRAParis06:54:22  +  00:03:58=34,317 
46 FRAKléber PiotFRAParis06:54:22  +  00:03:58=34,317 
47 FRAGuy LapébieFRACenter-South West06:54:22  +  00:03:58=34,317 
48 FRAHenri MassalFRACenter-South West06:54:22  +  00:03:58=34,317 
49 FRAJacques PrasFRACenter-South West06:54:22  +  00:03:58=34,317 
50 FRAYvan MarieFRAWest06:54:22  +  00:03:58=34,317 
51 FRADaniel ThuayreFRAIle De France-North East06:54:22  +  00:03:58=34,317 
52 FRAEdouard MullerFRAIle De France-North East06:54:22  +  00:03:58=34,317 
53 FRARoger PontetFRAWest06:54:22  +  00:03:58=34,317 
54 FRAFrancois HelaryFRAIle De France-North East06:54:22  +  00:03:58=34,317 
55 FRAJean De GribaldyFRAIle De France-North East06:54:22  +  00:03:58=34,317 
56 FRAEloi TassinFRAWest06:54:22  +  00:03:58=34,317 
57 FRAPierre BaratinFRAIle De France-North East06:54:22  +  00:03:58=34,317 
58 FRARobert ChapatteFRAParis06:54:22  +  00:03:58=34,317 
59 NEDJoseph JanssenINTHolland-Luxembourg06:54:22  +  00:03:58=34,317 
60 FRAGeorges RamouluxFRACenter-South West06:54:22  +  00:03:58=34,317 
61 ITAAldo RonconiITACadetti Italiens06:54:22  +  00:03:58=34,317 
62 FRAEmile IdéeFRAFrance06:54:22  +  00:03:58=34,317 
63 BELLeon JomauxBELAiglons Belges06:54:22  +  00:03:58=34,317 
64 FRAPaul GiguetFRAFrance06:54:22  +  00:03:58=34,317 
65 LUXJean KirchenINTHolland-Luxembourg06:54:22  +  00:03:58=34,317 
66 BELNorbert CallensBELBelgium06:54:22  +  00:03:58=34,317 
67 ITAÉdouard FachleitnerFRAFrance06:54:22  +  00:03:58=34,317 
68 ITABruno PasquiniITAItaly06:54:22  +  00:03:58=34,317 
69 ITAGiuseppe TaccaINTInternations06:54:22  +  00:03:58=34,317 
70 SUIRoger AeschlimannINTInternations06:54:22  +  00:03:58=34,317 
71 BELLucien MathysBELAiglons Belges06:54:22  +  00:03:58=34,317 
72 BELMaurice MollinBELAiglons Belges06:54:22  +  00:03:58=34,317 
73 BELEdward Van DijckBELBelgium06:54:22  +  00:03:58=34,317 
74 BELStan OckersBELBelgium06:54:22  +  00:03:58=34,317 
75 BELRaymond ImpanisBELBelgium06:54:22  +  00:03:58=34,317 
76 NEDHenk de HoogINTHolland-Luxembourg06:54:22  +  00:03:58=34,317 
77 LUXWilly KempINTHolland-Luxembourg06:54:22  +  00:03:58=34,317 
78 BELFlorent RondeléBELAiglons Belges06:54:22  +  00:03:58=34,317 
79 LUXHenri AckermannINTHolland-Luxembourg06:54:22  +  00:03:58=34,317 
80 FRAPaul MayeFRACenter-South West06:59:00  +  00:08:36=33,938 
81 ITAVittorio SeghezziITACadetti Italiens06:59:14  +  00:08:50=33,919 
82 FRALouis DeprezFRAIle De France-North East06:59:14  +  00:08:50=33,919 
83 FRARoger ChupinFRAWest06:59:14  +  00:08:50=33,919 
84 ITAGiovanni CorrieriITAItaly07:00:05  +  00:09:41=33,850 
85 ITASerifano BiagioniITAItaly07:00:05  +  00:09:41=33,850 
86 ITAEnzo CoppiniITACadetti Italiens07:00:05  +  00:09:41=33,850 
87 FRADaniel OrtsFRACenter-South West07:00:05  +  00:09:41=33,850 
88 FRAAlphonse De VreeseFRAIle De France-North East07:00:05  +  00:09:41=33,850 
89 ITAVittorio MagniITACadetti Italiens07:00:05  +  00:09:41=33,850 
90 ITAUmberto DreiITACadetti Italiens07:00:05  +  00:09:41=33,850 
91 ITAOreste ConteITACadetti Italiens07:03:04  +  00:12:40=33,612 
92 FRARaymond GoussotFRAParis07:03:04  +  00:12:40=33,612 
93 FRAMaurice CarpentierFRAWest07:03:04  +  00:12:40=33,612 
94 FRAPierre CoganFRAWest07:03:04  +  00:12:40=33,612 
95 BELVictor JolyINTInternations07:03:04  +  00:12:40=33,612 
96 NEDWim De RuyterINTHolland-Luxembourg07:03:04  +  00:12:40=33,612 
97 MEXAttilio LambertiniITACadetti Italiens07:03:04  +  00:12:40=33,612 
98 BELEmiel RogiersBELBelgium07:03:04  +  00:12:40=33,612 
99 FRAFrançois PersonFRAWest07:06:12  +  00:15:48=33,365 
100 ITAPrimo VolpiITAItaly07:07:09  +  00:16:45=33,290 
101 FRAAndré BruléFRAParis07:09:27  +  00:19:03=33,112 
102 LUXRené BieverINTHolland-Luxembourg07:12:29  +  00:22:05=32,880 
103 NEDBernard FrankenINTHolland-Luxembourg07:13:22  +  00:22:58=32,813 
104 ALGMaurice LauzeFRASouth-East07:13:22  +  00:22:58=32,813 
105 FRAJean ReyFRASouth-East07:13:22  +  00:22:58=32,813 
106 FRAJean-Marie GoasmatFRAWest07:13:22  +  00:22:58=32,813 
107 FRAJean-Apotre LazaridesFRAFrance07:13:22  +  00:22:58=32,813 
108 NEDCor BakkerINTHolland-Luxembourg07:13:22  +  00:22:58=32,813 
109 NEDFrans PauwelsINTHolland-Luxembourg07:13:22  +  00:22:58=32,813 
110 ITAEgidio FeruglioITAItaly07:13:22  +  00:22:58=32,813 
111 ITAGuido De SantiITAItaly07:18:48  +  00:28:24=32,407 
112 FRAMarius BonnetFRASouth-East07:18:48  +  00:28:24=32,407 
113 ITANello SforacchiITACadetti Italiens07:25:08  +  00:34:44=31,945 
114 FRAPierre MolinerisFRASouth-East07:29:40  +  00:39:16=31,623 
115 ITAVincenzo RosselloITAItaly07:29:40  +  00:39:16=31,623 
116 FRAJacques MarinelliFRAParis07:31:57  +  00:41:33=31,464 
117 ITAGiordano CotturITAItaly07:31:57  +  00:41:33=31,464 

Withdrawls: 3
 
Rider
Team
Reason
64  ITAMario FazioITACadetti ItaliensDid not finish
68  ITAVirgilio SalimbeniITACadetti ItaliensDid not finish
120  ALGAbdel-Kader ZaafFRASouth-EastDid not finish

Todays birthdays.

1889  Arthur Godart
1901  Félix Baud
1904  Fernand Fayolle
1921  Pietro Giudici
1932  Félix Le Buhotel
1932  Piet Van Den Brekel
1954  Hennie Stamsnijder
1965  Francis Moreau
1980  Andrey Kashechkin
1981  Stefan Schumacher




Visits: